Time,TemperatureF,DewpointF,PressureIn,WindDirection,WindDirectionDegrees,WindSpeedMPH,WindSpeedGustMPH,Humidity,HourlyPrecipIn,Conditions,Clouds,dailyrainin,SolarRadiationWatts/m^2,SoftwareType,DateUTC
2013-06-29 00:01:00,71.0,46.0,30.06,ENE,61,3.0,-999.0,41,-99.99,,,-99.99,0.000000,,2013-06-29 06:01:00,
2013-06-29 00:12:00,71.0,46.0,30.06,ENE,61,3.0,-999.0,41,-99.99,,,-99.99,0.000000,,2013-06-29 06:12:00,
2013-06-29 00:22:00,72.0,46.0,30.06,ENE,61,5.0,-999.0,40,-99.99,,,-99.99,0.000000,,2013-06-29 06:22:00,
2013-06-29 00:33:00,73.0,47.0,30.06,ENE,57,8.0,-999.0,40,-99.99,,,-99.99,0.000000,,2013-06-29 06:33:00,
2013-06-29 00:43:00,73.0,47.0,30.06,ENE,57,8.0,-999.0,40,-99.99,,,-99.99,0.000000,,2013-06-29 06:43:00,
2013-06-29 00:53:00,73.0,47.0,30.06,ENE,68,6.0,-999.0,40,-99.99,,,-99.99,0.000000,,2013-06-29 06:53:00,
2013-06-29 01:02:00,73.0,47.0,30.06,ENE,59,7.0,-999.0,40,-99.99,,,-99.99,0.000000,,2013-06-29 07:02:00,
2013-06-29 01:12:00,73.0,47.0,30.06,ENE,59,7.0,-999.0,40,-99.99,,,-99.99,0.000000,,2013-06-29 07:12:00,
2013-06-29 01:22:00,73.0,48.0,30.06,East,82,8.0,-999.0,41,-99.99,,,-99.99,0.000000,,2013-06-29 07:22:00,
2013-06-29 01:33:00,72.0,48.0,30.06,ESE,102,5.0,-999.0,42,-99.99,,,-99.99,0.000000,,2013-06-29 07:33:00,
2013-06-29 01:43:00,72.0,48.0,30.06,ESE,102,5.0,-999.0,42,-99.99,,,-99.99,0.000000,,2013-06-29 07:43:00,
2013-06-29 01:53:00,72.0,48.0,30.06,East,82,5.0,-999.0,43,-99.99,,,-99.99,0.000000,,2013-06-29 07:53:00,
2013-06-29 02:01:00,72.0,48.0,30.06,ENE,78,7.0,-999.0,43,-99.99,,,-99.99,0.000000,,2013-06-29 08:01:00,
2013-06-29 02:11:00,72.0,48.0,30.06,ENE,78,7.0,-999.0,43,-99.99,,,-99.99,0.000000,,2013-06-29 08:11:00,
2013-06-29 02:22:00,71.0,47.0,30.06,East,81,4.0,-999.0,43,-99.99,,,-99.99,0.000000,,2013-06-29 08:22:00,
2013-06-29 02:33:00,71.0,48.0,30.06,ESE,107,6.0,-999.0,44,-99.99,,,-99.99,0.000000,,2013-06-29 08:33:00,
2013-06-29 02:43:00,71.0,48.0,30.06,ESE,107,6.0,-999.0,44,-99.99,,,-99.99,0.000000,,2013-06-29 08:43:00,
2013-06-29 02:52:00,71.0,47.0,30.06,East,80,8.0,-999.0,43,-99.99,,,-99.99,0.000000,,2013-06-29 08:52:00,
2013-06-29 03:02:00,71.0,48.0,30.06,ESE,111,7.0,-999.0,44,-99.99,,,-99.99,0.000000,,2013-06-29 09:02:00,
2013-06-29 03:12:00,71.0,48.0,30.06,ESE,111,7.0,-999.0,44,-99.99,,,-99.99,0.000000,,2013-06-29 09:12:00,
2013-06-29 03:22:00,70.0,47.0,30.05,East,98,5.0,-999.0,44,-99.99,,,-99.99,0.000000,,2013-06-29 09:22:00,
2013-06-29 03:33:00,70.0,48.0,30.06,ESE,114,5.0,-999.0,45,-99.99,,,-99.99,0.000000,,2013-06-29 09:33:00,
2013-06-29 03:42:00,70.0,48.0,30.06,ESE,114,5.0,-999.0,45,-99.99,,,-99.99,0.000000,,2013-06-29 09:42:00,
2013-06-29 03:53:00,70.0,48.0,30.05,ESE,115,5.0,-999.0,45,-99.99,,,-99.99,0.000000,,2013-06-29 09:53:00,
2013-06-29 04:01:00,69.0,47.0,30.05,ESE,104,5.0,-999.0,46,-99.99,,,-99.99,0.000000,,2013-06-29 10:01:00,
2013-06-29 04:11:00,69.0,47.0,30.05,ESE,104,5.0,-999.0,46,-99.99,,,-99.99,0.000000,,2013-06-29 10:11:00,
2013-06-29 04:22:00,69.0,47.0,30.05,ENE,73,2.0,-999.0,46,-99.99,,,-99.99,0.000000,,2013-06-29 10:22:00,
2013-06-29 04:33:00,66.0,46.0,30.05,NNE,33,2.0,-999.0,49,-99.99,,,-99.99,0.000000,,2013-06-29 10:33:00,
2013-06-29 04:43:00,66.0,46.0,30.05,NNE,33,2.0,-999.0,49,-99.99,,,-99.99,0.000000,,2013-06-29 10:43:00,
2013-06-29 04:53:00,63.0,46.0,30.04,NE,40,4.0,-999.0,53,-99.99,,,-99.99,0.000000,,2013-06-29 10:53:00,
2013-06-29 05:01:00,62.0,47.0,30.04,NE,36,4.0,-999.0,57,-99.99,,,-99.99,0.000000,,2013-06-29 11:01:00,
2013-06-29 05:11:00,62.0,47.0,30.04,NE,36,4.0,-999.0,57,-99.99,,,-99.99,0.000000,,2013-06-29 11:11:00,
2013-06-29 05:23:00,62.0,47.0,30.05,NE,42,3.0,-999.0,57,-99.99,,,-99.99,0.000000,,2013-06-29 11:23:00,
2013-06-29 05:33:00,62.0,47.0,30.05,NNE,30,0.0,-999.0,59,-99.99,,,-99.99,0.000000,,2013-06-29 11:33:00,
2013-06-29 05:43:00,62.0,47.0,30.05,NNE,30,0.0,-999.0,59,-99.99,,,-99.99,0.000000,,2013-06-29 11:43:00,
2013-06-29 05:53:00,61.0,47.0,30.05,NNE,30,0.0,-999.0,60,-99.99,,,-99.99,0.000000,,2013-06-29 11:53:00,
2013-06-29 06:02:00,61.0,47.0,30.06,NNE,30,0.0,-999.0,61,-99.99,,,-99.99,9.000000,,2013-06-29 12:02:00,
2013-06-29 06:12:00,61.0,47.0,30.06,NNE,30,0.0,-999.0,61,-99.99,,,-99.99,9.000000,,2013-06-29 12:12:00,
2013-06-29 06:22:00,61.0,47.0,30.05,NNE,28,0.0,-999.0,61,-99.99,,,-99.99,16.000000,,2013-06-29 12:22:00,
2013-06-29 06:34:00,62.0,48.0,30.06,NNW,348,0.0,-999.0,60,-99.99,,,-99.99,21.000000,,2013-06-29 12:34:00,
2013-06-29 06:43:00,62.0,48.0,30.06,NNW,348,0.0,-999.0,60,-99.99,,,-99.99,21.000000,,2013-06-29 12:43:00,
2013-06-29 06:53:00,62.0,48.0,30.06,NNW,342,0.0,-999.0,61,-99.99,,,-99.99,49.000000,,2013-06-29 12:53:00,
2013-06-29 07:02:00,63.0,49.0,30.06,NNW,338,0.0,-999.0,61,-99.99,,,-99.99,98.000000,,2013-06-29 13:02:00,
2013-06-29 07:11:00,63.0,49.0,30.06,NNW,338,0.0,-999.0,61,-99.99,,,-99.99,98.000000,,2013-06-29 13:11:00,
2013-06-29 07:23:00,64.0,50.0,30.06,NNW,331,1.0,-999.0,61,-99.99,,,-99.99,146.000000,,2013-06-29 13:23:00,
2013-06-29 07:34:00,65.0,50.0,30.06,NNW,340,2.0,-999.0,58,-99.99,,,-99.99,199.000000,,2013-06-29 13:34:00,
2013-06-29 07:43:00,65.0,50.0,30.06,NNW,340,2.0,-999.0,58,-99.99,,,-99.99,199.000000,,2013-06-29 13:43:00,
2013-06-29 07:53:00,66.0,50.0,30.06,NNW,331,0.0,-999.0,56,-99.99,,,-99.99,248.000000,,2013-06-29 13:53:00,
2013-06-29 08:02:00,68.0,51.0,30.06,WNW,297,0.0,-999.0,54,-99.99,,,-99.99,294.000000,,2013-06-29 14:02:00,
2013-06-29 08:12:00,68.0,51.0,30.06,WNW,297,0.0,-999.0,54,-99.99,,,-99.99,294.000000,,2013-06-29 14:12:00,
2013-06-29 08:23:00,69.0,51.0,30.06,WNW,300,0.0,-999.0,53,-99.99,,,-99.99,327.000000,,2013-06-29 14:23:00,
2013-06-29 08:33:00,70.0,50.0,30.06,West,267,1.0,-999.0,50,-99.99,,,-99.99,385.000000,,2013-06-29 14:33:00,
2013-06-29 08:44:00,70.0,50.0,30.06,West,267,1.0,-999.0,50,-99.99,,,-99.99,385.000000,,2013-06-29 14:44:00,
2013-06-29 08:53:00,71.0,50.0,30.06,WSW,254,0.0,-999.0,48,-99.99,,,-99.99,432.000000,,2013-06-29 14:53:00,
2013-06-29 09:01:00,73.0,50.0,30.06,NNW,348,2.0,-999.0,44,-99.99,,,-99.99,475.000000,,2013-06-29 15:01:00,
2013-06-29 09:11:00,73.0,50.0,30.06,NNW,348,2.0,-999.0,44,-99.99,,,-99.99,475.000000,,2013-06-29 15:11:00,
2013-06-29 09:22:00,74.0,51.0,30.05,NNE,24,0.0,-999.0,44,-99.99,,,-99.99,517.000000,,2013-06-29 15:22:00,
2013-06-29 09:33:00,75.0,52.0,30.05,WNW,298,1.0,-999.0,45,-99.99,,,-99.99,563.000000,,2013-06-29 15:33:00,
2013-06-29 09:42:00,75.0,52.0,30.05,WNW,298,1.0,-999.0,45,-99.99,,,-99.99,563.000000,,2013-06-29 15:42:00,
2013-06-29 09:53:00,76.0,51.0,30.04,NW,321,1.0,-999.0,42,-99.99,,,-99.99,605.000000,,2013-06-29 15:53:00,
2013-06-29 10:01:00,77.0,51.0,30.04,NW,313,1.0,-999.0,41,-99.99,,,-99.99,626.000000,,2013-06-29 16:01:00,
2013-06-29 10:12:00,77.0,51.0,30.04,NW,313,1.0,-999.0,41,-99.99,,,-99.99,626.000000,,2013-06-29 16:12:00,
2013-06-29 10:22:00,77.0,51.0,30.04,WNW,294,4.0,-999.0,41,-99.99,,,-99.99,654.000000,,2013-06-29 16:22:00,
2013-06-29 10:33:00,78.0,51.0,30.03,NNW,342,3.0,-999.0,39,-99.99,,,-99.99,621.000000,,2013-06-29 16:33:00,
2013-06-29 10:43:00,78.0,51.0,30.03,NNW,342,3.0,-999.0,39,-99.99,,,-99.99,621.000000,,2013-06-29 16:43:00,
2013-06-29 10:53:00,80.0,52.0,30.02,NNW,333,2.0,-999.0,38,-99.99,,,-99.99,779.000000,,2013-06-29 16:53:00,
2013-06-29 11:01:00,81.0,52.0,30.02,NNW,348,2.0,-999.0,36,-99.99,,,-99.99,715.000000,,2013-06-29 17:01:00,
2013-06-29 11:12:00,81.0,52.0,30.02,NNW,348,2.0,-999.0,36,-99.99,,,-99.99,715.000000,,2013-06-29 17:12:00,
2013-06-29 11:22:00,81.0,52.0,30.01,NE,51,2.0,-999.0,36,-99.99,,,-99.99,807.000000,,2013-06-29 17:22:00,
2013-06-29 11:33:00,82.0,50.0,30.01,North,5,3.0,-999.0,33,-99.99,,,-99.99,123.000000,,2013-06-29 17:33:00,
2013-06-29 11:42:00,82.0,50.0,30.01,North,5,3.0,-999.0,33,-99.99,,,-99.99,123.000000,,2013-06-29 17:42:00,
2013-06-29 11:53:00,83.0,50.0,30.01,NNW,340,2.0,-999.0,32,-99.99,,,-99.99,70.000000,,2013-06-29 17:53:00,
2013-06-29 12:01:00,83.0,52.0,30.00,NNE,27,2.0,-999.0,34,-99.99,,,-99.99,70.000000,,2013-06-29 18:01:00,
2013-06-29 12:12:00,83.0,52.0,30.00,NNE,27,2.0,-999.0,34,-99.99,,,-99.99,70.000000,,2013-06-29 18:12:00,
2013-06-29 12:22:00,84.0,51.0,29.99,SSW,211,1.0,-999.0,32,-99.99,,,-99.99,79.000000,,2013-06-29 18:22:00,
2013-06-29 12:34:00,84.0,50.0,29.98,WSW,254,1.0,-999.0,31,-99.99,,,-99.99,135.000000,,2013-06-29 18:34:00,
2013-06-29 12:43:00,84.0,50.0,29.98,WSW,254,1.0,-999.0,31,-99.99,,,-99.99,135.000000,,2013-06-29 18:43:00,
2013-06-29 12:53:00,84.0,49.0,29.98,North,11,1.0,-999.0,30,-99.99,,,-99.99,202.000000,,2013-06-29 18:53:00,
2013-06-29 13:01:00,85.0,53.0,29.98,ENE,59,1.0,-999.0,34,-99.99,,,-99.99,213.000000,,2013-06-29 19:01:00,
2013-06-29 13:12:00,85.0,53.0,29.98,ENE,59,1.0,-999.0,34,-99.99,,,-99.99,213.000000,,2013-06-29 19:12:00,
2013-06-29 13:22:00,86.0,49.0,29.97,North,355,0.0,-999.0,28,-99.99,,,-99.99,258.000000,,2013-06-29 19:22:00,
2013-06-29 13:34:00,87.0,48.0,29.96,NNW,332,1.0,-999.0,26,-99.99,,,-99.99,624.000000,,2013-06-29 19:34:00,
2013-06-29 13:43:00,87.0,48.0,29.96,NNW,332,1.0,-999.0,26,-99.99,,,-99.99,624.000000,,2013-06-29 19:43:00,
2013-06-29 13:54:00,87.0,49.0,29.96,NW,309,2.0,-999.0,27,-99.99,,,-99.99,652.000000,,2013-06-29 19:54:00,
2013-06-29 14:02:00,87.0,49.0,29.96,NW,309,2.0,-999.0,27,-99.99,,,-99.99,652.000000,,2013-06-29 20:02:00,
2013-06-29 14:11:00,88.0,48.0,29.95,NE,55,1.0,-999.0,25,-99.99,,,-99.99,686.000000,,2013-06-29 20:11:00,
2013-06-29 14:23:00,88.0,48.0,29.94,North,349,3.0,-999.0,25,-99.99,,,-99.99,,,2013-06-29 20:23:00,
2013-06-29 14:33:00,88.0,48.0,29.94,North,349,3.0,-999.0,25,-99.99,,,-99.99,,,2013-06-29 20:33:00,
2013-06-29 14:43:00,88.0,46.0,29.93,NE,40,6.0,-999.0,23,-99.99,,,-99.99,974.000000,,2013-06-29 20:43:00,
2013-06-29 14:52:00,88.0,47.0,29.93,NE,37,6.0,-999.0,24,-99.99,,,-99.99,,,2013-06-29 20:52:00,
2013-06-29 15:02:00,88.0,47.0,29.93,NE,37,6.0,-999.0,24,-99.99,,,-99.99,,,2013-06-29 21:02:00,
2013-06-29 15:11:00,88.0,44.0,29.93,NE,52,5.0,-999.0,22,-99.99,,,-99.99,954.000000,,2013-06-29 21:11:00,
2013-06-29 15:22:00,89.0,44.0,29.92,NE,41,4.0,-999.0,21,-99.99,,,-99.99,949.000000,,2013-06-29 21:22:00,
2013-06-29 15:32:00,89.0,44.0,29.92,NE,41,4.0,-999.0,21,-99.99,,,-99.99,949.000000,,2013-06-29 21:32:00,
2013-06-29 15:42:00,90.0,43.0,29.91,ENE,61,5.0,-999.0,20,-99.99,,,-99.99,954.000000,,2013-06-29 21:42:00,
2013-06-29 15:52:00,88.0,41.0,29.91,ENE,62,9.0,-999.0,19,-99.99,,,-99.99,387.000000,,2013-06-29 21:52:00,
2013-06-29 16:01:00,88.0,41.0,29.91,ENE,62,9.0,-999.0,19,-99.99,,,-99.99,387.000000,,2013-06-29 22:01:00,
2013-06-29 16:11:00,89.0,43.0,29.91,NNE,28,8.0,-999.0,20,-99.99,,,-99.99,376.000000,,2013-06-29 22:11:00,
2013-06-29 16:21:00,88.0,43.0,29.92,ENE,67,1.0,-999.0,21,-99.99,,,-99.99,218.000000,,2013-06-29 22:21:00,
2013-06-29 16:33:00,88.0,43.0,29.92,ENE,67,1.0,-999.0,21,-99.99,,,-99.99,218.000000,,2013-06-29 22:33:00,
2013-06-29 16:43:00,88.0,42.0,29.92,ENE,61,4.0,-999.0,20,-99.99,,,-99.99,216.000000,,2013-06-29 22:43:00,
2013-06-29 16:53:00,87.0,41.0,29.92,NNE,26,5.0,-999.0,20,-99.99,,,-99.99,121.000000,,2013-06-29 22:53:00,
2013-06-29 17:02:00,87.0,41.0,29.92,NNE,26,5.0,-999.0,20,-99.99,,,-99.99,121.000000,,2013-06-29 23:02:00,
2013-06-29 17:12:00,87.0,41.0,29.92,North,355,1.0,-999.0,20,-99.99,,,-99.99,56.000000,,2013-06-29 23:12:00,
2013-06-29 17:23:00,86.0,41.0,29.93,NNE,29,1.0,-999.0,21,-99.99,,,-99.99,25.000000,,2013-06-29 23:23:00,
2013-06-29 17:34:00,86.0,41.0,29.93,NNE,29,1.0,-999.0,21,-99.99,,,-99.99,25.000000,,2013-06-29 23:34:00,
2013-06-29 17:43:00,79.0,47.0,29.96,West,271,12.0,-999.0,32,-99.99,,,-99.99,12.000000,,2013-06-29 23:43:00,
2013-06-29 17:52:00,76.0,46.0,29.97,West,271,23.0,-999.0,35,-99.99,,,-99.99,14.000000,,2013-06-29 23:52:00,
2013-06-29 18:02:00,76.0,46.0,29.97,West,271,23.0,-999.0,35,-99.99,,,-99.99,14.000000,,2013-06-30 00:02:00,
2013-06-29 18:33:00,70.0,49.0,29.97,West,266,21.0,-999.0,48,-99.99,,,-99.99,12.000000,,2013-06-30 00:33:00,
2013-06-29 18:43:00,71.0,50.0,29.96,WSW,254,17.0,-999.0,47,-99.99,,,-99.99,11.000000,,2013-06-30 00:43:00,
2013-06-29 18:52:00,75.0,41.0,29.95,SSW,213,7.0,-999.0,29,-99.99,,,-99.99,12.000000,,2013-06-30 00:52:00,
2013-06-29 19:01:00,75.0,41.0,29.95,SSW,213,7.0,-999.0,29,-99.99,,,-99.99,12.000000,,2013-06-30 01:01:00,
2013-06-29 19:11:00,75.0,41.0,29.96,SSW,198,11.0,-999.0,30,-99.99,,,-99.99,33.000000,,2013-06-30 01:11:00,
2013-06-29 19:44:00,80.0,39.0,29.93,South,178,12.0,-999.0,23,-99.99,,,-99.99,135.000000,,2013-06-30 01:44:00,
2013-06-29 19:53:00,77.0,46.0,29.94,SSW,200,10.0,-999.0,34,-99.99,,,-99.99,183.000000,,2013-06-30 01:53:00,
2013-06-29 20:02:00,77.0,46.0,29.94,SSW,200,10.0,-999.0,34,-99.99,,,-99.99,183.000000,,2013-06-30 02:02:00,
2013-06-29 20:11:00,77.0,44.0,29.94,South,183,5.0,-999.0,31,-99.99,,,-99.99,65.000000,,2013-06-30 02:11:00,
2013-06-29 20:23:00,77.0,44.0,29.95,WSW,254,1.0,-999.0,31,-99.99,,,-99.99,40.000000,,2013-06-30 02:23:00,
2013-06-29 20:33:00,77.0,44.0,29.95,WSW,254,1.0,-999.0,31,-99.99,,,-99.99,40.000000,,2013-06-30 02:33:00,
2013-06-29 20:43:00,75.0,50.0,29.96,West,263,5.0,-999.0,42,-99.99,,,-99.99,11.000000,,2013-06-30 02:43:00,
2013-06-29 20:53:00,73.0,49.0,29.97,NW,304,7.0,-999.0,43,-99.99,,,-99.99,0.000000,,2013-06-30 02:53:00,
2013-06-29 21:01:00,73.0,49.0,29.97,NW,304,7.0,-999.0,43,-99.99,,,-99.99,0.000000,,2013-06-30 03:01:00,
2013-06-29 21:12:00,72.0,51.0,29.97,WNW,296,6.0,-999.0,47,-99.99,,,-99.99,0.000000,,2013-06-30 03:12:00,
2013-06-29 21:23:00,71.0,50.0,29.97,WNW,298,6.0,-999.0,48,-99.99,,,-99.99,0.000000,,2013-06-30 03:23:00,
2013-06-29 21:33:00,71.0,50.0,29.97,WNW,298,6.0,-999.0,48,-99.99,,,-99.99,0.000000,,2013-06-30 03:33:00,
2013-06-29 21:43:00,71.0,50.0,29.97,NNW,339,4.0,-999.0,48,-99.99,,,-99.99,0.000000,,2013-06-30 03:43:00,
2013-06-29 21:53:00,70.0,50.0,29.97,North,355,6.0,-999.0,50,-99.99,,,-99.99,0.000000,,2013-06-30 03:53:00,
2013-06-29 22:01:00,70.0,50.0,29.97,North,355,6.0,-999.0,50,-99.99,,,-99.99,0.000000,,2013-06-30 04:01:00,
2013-06-29 22:12:00,70.0,49.0,29.98,NNW,344,7.0,-999.0,48,-99.99,,,-99.99,0.000000,,2013-06-30 04:12:00,
2013-06-29 22:22:00,70.0,49.0,29.99,NNW,340,4.0,-999.0,47,-99.99,,,-99.99,0.000000,,2013-06-30 04:22:00,
2013-06-29 22:33:00,70.0,49.0,29.99,NNW,340,4.0,-999.0,47,-99.99,,,-99.99,0.000000,,2013-06-30 04:33:00,
2013-06-29 22:43:00,70.0,47.0,30.00,North,355,5.0,-999.0,44,-99.99,,,-99.99,0.000000,,2013-06-30 04:43:00,
2013-06-29 22:53:00,70.0,47.0,30.02,WNW,282,1.0,-999.0,44,-99.99,,,-99.99,0.000000,,2013-06-30 04:53:00,
2013-06-29 23:02:00,70.0,47.0,30.02,WNW,282,1.0,-999.0,44,-99.99,,,-99.99,0.000000,,2013-06-30 05:02:00,
2013-06-29 23:12:00,70.0,46.0,30.04,West,281,0.0,-999.0,43,-99.99,,,-99.99,0.000000,,2013-06-30 05:12:00,
2013-06-29 23:22:00,70.0,46.0,30.04,NNE,23,2.0,-999.0,42,-99.99,,,-99.99,0.000000,,2013-06-30 05:22:00,
2013-06-29 23:33:00,70.0,46.0,30.04,NNE,23,2.0,-999.0,42,-99.99,,,-99.99,0.000000,,2013-06-30 05:33:00,
2013-06-29 23:43:00,70.0,46.0,30.05,NNE,15,3.0,-999.0,42,-99.99,,,-99.99,0.000000,,2013-06-30 05:43:00,
2013-06-29 23:53:00,70.0,46.0,30.06,NNW,344,1.0,-999.0,43,-99.99,,,-99.99,0.000000,,2013-06-30 05:53:00,